Regional Weather Roundup
Issued by NWS

Home | Current Version | Previous Version | Graphics & Text | Print | Product List | Glossary On
Versions: 1 2 3 4 5 6 7 8 9 10 11 12 13 14 15 16 17 18 19 20 21 22 23 24 25 26 27 28 29 30 31 32 33 34 35 36 37 38 39 40 41 42 43 44 45 46 47 48 49 50
000
ASUS44 KMEG 301210
RWRTN
TENNESSEE HOURLY STATE WEATHER ROUNDUP
NATIONAL WEATHER SERVICE MEMPHIS TN
700 AM CDT TUE SEP 30 2014

TNZ002-004-019-021-049-052-054-088>092-301300-
WEST TENNESSEE

CITY           SKY/WX    TMP DP  RH WIND       PRES   REMARKS
MEMPHIS INTL   PTCLDY    65  58  78 CALM      29.95R
NWS MEMPHIS      N/A     60 N/A N/A MISG        N/A
JACKSON        CLEAR     55  54  94 CALM      29.96R FOG
DYERSBURG      CLEAR     57  46  67 CALM      29.97R
UNION CITY     CLEAR     54  54 100 CALM      29.95R
PARIS          CLEAR     54  50  87 CALM      29.96S
HUNTINGDON     CLEAR     54  53  96 CALM      29.97R
LEXINGTON      CLOUDY    55  55 100 CALM      29.95S VSB 1/4
SAVANNAH       CLEAR     55  55 100 CALM      29.97R
$$

TNZ008-025-027-028-033-062-065-066-301300-
NORTH MIDDLE TENNESSEE

CITY           SKY/WX    TMP DP  RH WIND       PRES   REMARKS
NASHVILLE      PTCLDY    59  58  96 S3        29.97R
DICKSON        CLEAR     59  55  88 CALM      29.97R
PORTLAND       CLEAR     54  54 100 CALM      29.96R
CLARKSVILLE    FOG       54  54 100 CALM      29.96R VSB<1/4
LEBANON        CLEAR     55  54  97 CALM      29.96R
SMYRNA         CLEAR     56  56 100 CALM      29.98R
MURFREESBORO   CLEAR     59  56  89 CALM      29.97R
COOKEVILLE       N/A     52  52 100 CALM      29.98S VSB 1/2
CROSSVILLE     CLEAR     57  52  83 CALM      30.01R
$$

TNZ061-075-076-078-094-096-097-301300-
SOUTH MIDDLE TENNESSEE

CITY           SKY/WX    TMP DP  RH WIND       PRES   REMARKS
LEWISBURG      CLEAR     53  53 100 CALM      29.97R
FAYETTEVILLE     N/A     57  57 100 CALM      29.99R VSB 1/4
TULLAHOMA      CLOUDY    55  54  94 CALM      30.00R VSB 0
WINCHESTER     CLEAR     55  54  94 CALM      29.99S
MCMINNVILLE    CLEAR     54  54 100 CALM      29.99R
COLUMBIA       CLEAR    N/A N/A N/A CALM      29.97R
SHELBYVILLE    CLEAR     57  57 100 CALM      29.99R
$$

TNZ017-018-042-046-047-301300-
NORTHEAST TENNESSEE

CITY           SKY/WX    TMP DP  RH WIND       PRES   REMARKS
TRI CITIES     FOG       55  53  93 CALM      30.00R VSB 1/16
ELIZABETHTON   MOSUNNY   54  54 100 CALM      30.01R
$$

TNZ012-013-036-069-073-074-301300-
CENTRAL EAST TENNESSEE

CITY           SKY/WX    TMP DP  RH WIND       PRES   REMARKS
KNOXVILLE      CLOUDY    61  59  93 SE3       29.97S
OAK RIDGE      FOG       62  61  96 CALM      30.00R VSB 1/4
GATLINBURG     SUNNY     54  54 100 CALM      29.98S
$$

TNZ083-085-099-301300-
SOUTHEAST TENNESSEE

CITY           SKY/WX    TMP DP  RH WIND       PRES   REMARKS
CHATTANOOGA    FOG       62  60  93 CALM      29.99R VSB 1/8
$$

SKY/WX REPORTED AS FAIR MEANS FEW OR NO CLOUDS BELOW
12 THOUSAND FEET.



USA.gov is the U.S. government's official web portal to all federal, state and local government web resources and services.